| time (UTC) | temp F | wind direction | speed MPH | gust MPH | rain 1hr in | rain 24hr in | rain mn in | humidity % | barometer mb |
| 20260906234538 | 55 | 0.0 | 0.0 | 0.00 | 0.01 | 0.01 | 90 | 1032.1 | |
| 20260906233518 | 55 | 0.0 | 0.0 | 0.01 | 0.01 | 0.01 | 90 | 1032.0 | |
| 20260906232538 | 54 | 0.0 | 0.0 | 0.01 | 0.01 | 0.01 | 90 | 1031.9 | |
| 20260906231538 | 54 | 0.0 | 0.0 | 0.01 | 0.01 | 0.01 | 90 | 1031.8 | |
| 20260906230518 | 54 | 0.0 | 0.0 | 0.01 | 0.01 | 0.01 | 90 | 1031.6 | |
| 20260906225518 | 53 | 0.0 | 0.0 | 0.01 | 0.01 | 0.01 | 90 | 1031.5 | |
| 20260906224518 | 53 | 0.0 | 0.0 | 0.01 | 0.01 | 0.01 | 90 | 1031.5 | |
| 20260906223518 | 53 | 0.0 | 0.0 | 0.00 | 0.00 | 0.00 | 90 | 1031.3 | |
| 20260906222518 | 53 | 0.0 | 0.0 | 0.00 | 0.00 | 0.00 | 89 | 1031.4 | |
| 20260906221518 | 53 | 0.0 | 0.0 | 0.00 | 0.00 | 0.00 | 89 | 1031.4 | |
| 20260906220519 | 53 | 0.0 | 0.0 | 0.00 | 0.00 | 0.00 | 89 | 1031.3 | |
| 20260906215517 | 53 | 0.0 | 0.0 | 0.00 | 0.00 | 0.00 | 89 | 1031.2 | |
| 20260906214518 | 53 | 0.0 | 0.0 | 0.00 | 0.00 | 0.00 | 89 | 1031.2 | |
| 20260906213517 | 53 | 0.0 | 0.0 | 0.00 | 0.00 | 0.00 | 89 | 1031.2 | |
| 20260906212538 | 53 | 0.0 | 0.0 | 0.00 | 0.00 | 0.00 | 89 | 1031.2 | |
| 20260906211517 | 53 | 0.0 | 0.0 | 0.00 | 0.00 | 0.00 | 89 | 1031.0 | |
| 20260906210518 | 53 | 0.0 | 0.0 | 0.00 | 0.00 | 0.00 | 88 | 1031.0 | |
| 20260906205517 | 53 | 0.0 | 0.0 | 0.00 | 0.00 | 0.00 | 89 | 1031.0 | |
| 20260906204517 | 52 | 0.0 | 0.0 | 0.00 | 0.00 | 0.00 | 88 | 1031.1 | |
| 20260906203517 | 52 | 0.0 | 0.0 | 0.00 | 0.00 | 0.00 | 88 | 1031.1 | |
| 20260906202517 | 52 | 0.0 | 0.0 | 0.00 | 0.00 | 0.00 | 88 | 1031.0 | |
| 20260906201518 | 52 | 0.0 | 0.0 | 0.00 | 0.00 | 0.00 | 88 | 1031.1 | |
| 20260906200518 | 52 | 0.0 | 0.0 | 0.00 | 0.00 | 0.00 | 88 | 1031.0 | |
| 20260906195517 | 52 | 0.0 | 0.0 | 0.00 | 0.00 | 0.00 | 87 | 1031.0 | |
| 20260906194517 | 53 | 0.0 | 0.0 | 0.00 | 0.00 | 0.00 | 87 | 1031.1 | |
| 20260906193518 | 53 | 0.0 | 0.0 | 0.00 | 0.00 | 0.00 | 87 | 1031.2 | |
| 20260906192557 | 53 | 0.0 | 0.0 | 0.00 | 0.00 | 0.00 | 86 | 1031.2 | |
| 20260906191517 | 54 | 0.0 | 0.0 | 0.00 | 0.00 | 0.00 | 86 | 1031.1 | |
| 20260906190517 | 54 | 0.0 | 0.0 | 0.00 | 0.00 | 0.00 | 86 | 1031.1 | |
| 20260906185517 | 54 | 0.0 | 0.0 | 0.00 | 0.00 | 0.00 | 85 | 1031.1 | |
| 20260906184517 | 54 | 0.0 | 1.0 | 0.00 | 0.00 | 0.00 | 85 | 1031.2 | |
| 20260906183518 | 55 | 0.0 | 3.0 | 0.00 | 0.00 | 0.00 | 83 | 1031.2 | |
| 20260906182517 | 55 | 0.0 | 1.0 | 0.00 | 0.00 | 0.00 | 82 | 1031.1 | |
| 20260906181517 | 55 | 0.0 | 0.0 | 0.00 | 0.00 | 0.00 | 82 | 1031.1 | |
| 20260906180517 | 55 | 0.0 | 0.0 | 0.00 | 0.00 | 0.00 | 82 | 1031.2 | |
| 20260906175517 | 55 | 0.0 | 2.0 | 0.00 | 0.00 | 0.00 | 81 | 1031.3 | |
| 20260906174517 | 55 | 0.0 | 0.0 | 0.00 | 0.01 | 0.00 | 80 | 1031.3 | |
| 20260906173537 | 56 | 0.0 | 1.0 | 0.00 | 0.05 | 0.00 | 79 | 1031.3 | |
| 20260906172537 | 55 | 0.0 | 1.0 | 0.00 | 0.07 | 0.00 | 79 | 1031.3 | |
| 20260906171517 | 55 | 0.0 | 1.0 | 0.00 | 0.09 | 0.00 | 79 | 1031.2 | |
| 20260906170518 | 56 | 0.0 | 2.0 | 0.00 | 0.09 | 0.00 | 79 | 1031.2 | |
| 20260906165517 | 56 | 113 | 1.0 | 4.0 | 0.00 | 0.10 | 0.00 | 78 | 1031.2 |
| 20260906164517 | 56 | 0.0 | 1.0 | 0.00 | 0.10 | 0.00 | 78 | 1031.1 | |
| 20260906163518 | 56 | 0.0 | 4.0 | 0.00 | 0.10 | 0.00 | 77 | 1031.1 | |
| 20260906162539 | 56 | 0.0 | 5.0 | 0.00 | 0.10 | 0.00 | 77 | 1031.1 | |
| 20260906161519 | 56 | 0.0 | 4.0 | 0.00 | 0.10 | 0.00 | 76 | 1031.1 | |
| 20260906160539 | 56 | 0.0 | 3.0 | 0.00 | 0.11 | 0.00 | 76 | 1031.2 | |
| 20260906155517 | 56 | 0.0 | 1.0 | 0.00 | 0.11 | 0.11 | 76 | 1031.2 | |
| 20260906154517 | 56 | 0.0 | 7.0 | 0.00 | 0.11 | 0.11 | 75 | 1031.3 | |
| 20260906153517 | 56 | 0.0 | 5.0 | 0.00 | 0.12 | 0.11 | 75 | 1031.3 | |
| 20260906152517 | 56 | 0.0 | 2.0 | 0.00 | 0.15 | 0.11 | 75 | 1031.2 | |
| 20260906151518 | 56 | 0.0 | 2.0 | 0.00 | 0.27 | 0.11 | 74 | 1031.2 | |
| 20260906150517 | 56 | 0.0 | 3.0 | 0.00 | 0.39 | 0.11 | 74 | 1031.3 | |
| 20260906145557 | 56 | 113 | 1.0 | 5.0 | 0.00 | 0.41 | 0.11 | 74 | 1031.4 |
| 20260906144558 | 56 | 0.0 | 2.0 | 0.00 | 0.42 | 0.11 | 74 | 1031.3 | |
| 20260906143537 | 56 | 0.0 | 2.0 | 0.00 | 0.42 | 0.11 | 73 | 1031.4 | |
| 20260906142517 | 56 | 0.0 | 1.0 | 0.00 | 0.42 | 0.11 | 74 | 1031.4 | |
| 20260906141517 | 56 | 0.0 | 6.0 | 0.00 | 0.43 | 0.11 | 73 | 1031.4 | |
| 20260906140518 | 56 | 0.0 | 4.0 | 0.00 | 0.44 | 0.11 | 72 | 1031.4 | |
| 20260906135517 | 56 | 113 | 1.0 | 9.0 | 0.00 | 0.45 | 0.11 | 73 | 1031.5 |
| 20260906134517 | 56 | 0.0 | 5.0 | 0.00 | 0.46 | 0.11 | 75 | 1031.5 | |
| 20260906133537 | 56 | 0.0 | 4.0 | 0.00 | 0.46 | 0.11 | 76 | 1031.4 | |
| 20260906132517 | 56 | 0.0 | 5.0 | 0.00 | 0.47 | 0.11 | 77 | 1031.4 | |
| 20260906131517 | 56 | 113 | 1.0 | 5.0 | 0.00 | 0.49 | 0.11 | 77 | 1031.4 |
| 20260906130537 | 56 | 113 | 1.0 | 7.0 | 0.00 | 0.49 | 0.11 | 77 | 1031.5 |
| 20260906125517 | 56 | 113 | 1.0 | 8.0 | 0.00 | 0.49 | 0.11 | 76 | 1031.5 |
| 20260906124517 | 56 | 0.0 | 3.0 | 0.00 | 0.49 | 0.11 | 74 | 1031.5 | |
| 20260906123518 | 56 | 0.0 | 3.0 | 0.00 | 0.49 | 0.11 | 74 | 1031.6 | |
| 20260906122519 | 56 | 113 | 1.0 | 6.0 | 0.00 | 0.49 | 0.11 | 73 | 1031.5 |
| 20260906121519 | 56 | 113 | 1.0 | 9.0 | 0.00 | 0.49 | 0.11 | 73 | 1031.5 |
| 20260906120519 | 56 | 0.0 | 1.0 | 0.00 | 0.49 | 0.11 | 74 | 1031.3 | |
| 20260906115519 | 56 | 113 | 1.0 | 5.0 | 0.00 | 0.49 | 0.11 | 74 | 1031.3 |
| 20260906114539 | 56 | 113 | 1.0 | 8.0 | 0.00 | 0.49 | 0.11 | 74 | 1031.3 |
| 20260906113519 | 56 | 113 | 1.0 | 8.0 | 0.00 | 0.49 | 0.11 | 76 | 1031.2 |
| 20260906112519 | 56 | 113 | 1.0 | 7.0 | 0.00 | 0.49 | 0.11 | 76 | 1031.1 |
| 20260906111519 | 56 | 113 | 2.0 | 9.0 | 0.00 | 0.49 | 0.11 | 77 | 1031.1 |
| 20260906110519 | 56 | 113 | 1.0 | 9.0 | 0.00 | 0.49 | 0.11 | 76 | 1031.0 |
| 20260906105518 | 56 | 113 | 1.0 | 7.0 | 0.00 | 0.49 | 0.11 | 75 | 1031.0 |
| 20260906104518 | 56 | 90 | 1.0 | 7.0 | 0.00 | 0.49 | 0.11 | 74 | 1030.8 |
| 20260906103519 | 56 | 113 | 1.0 | 6.0 | 0.00 | 0.49 | 0.11 | 75 | 1030.7 |
| 20260906102519 | 56 | 113 | 1.0 | 6.0 | 0.00 | 0.49 | 0.11 | 74 | 1030.7 |
| 20260906101519 | 56 | 135 | 1.0 | 8.0 | 0.00 | 0.49 | 0.11 | 74 | 1030.5 |
| 20260906100519 | 56 | 68 | 1.0 | 9.0 | 0.00 | 0.49 | 0.11 | 73 | 1030.5 |
| 20260906095519 | 56 | 90 | 1.0 | 12.0 | 0.00 | 0.49 | 0.11 | 73 | 1030.3 |
| 20260906094519 | 56 | 0.0 | 6.0 | 0.00 | 0.49 | 0.11 | 74 | 1030.4 | |
| 20260906093519 | 56 | 113 | 1.0 | 6.0 | 0.00 | 0.49 | 0.11 | 74 | 1030.3 |
| 20260906092519 | 56 | 0.0 | 5.0 | 0.00 | 0.49 | 0.11 | 75 | 1030.2 | |
| 20260906091518 | 56 | 90 | 2.0 | 9.0 | 0.00 | 0.49 | 0.11 | 76 | 1030.1 |
| 20260906090539 | 56 | 113 | 2.0 | 11.0 | 0.00 | 0.49 | 0.11 | 77 | 1029.8 |
| 20260906085519 | 55 | 113 | 2.0 | 11.0 | 0.00 | 0.49 | 0.11 | 78 | 1029.7 |
| 20260906084518 | 56 | 113 | 2.0 | 10.0 | 0.00 | 0.49 | 0.11 | 77 | 1029.6 |
| 20260906083519 | 56 | 113 | 1.0 | 7.0 | 0.00 | 0.49 | 0.11 | 77 | 1029.4 |
| 20260906082538 | 57 | 113 | 2.0 | 13.0 | 0.00 | 0.49 | 0.11 | 75 | 1029.3 |
| 20260906081519 | 57 | 113 | 3.0 | 15.0 | 0.00 | 0.49 | 0.11 | 73 | 1029.2 |
| 20260906080518 | 57 | 113 | 1.0 | 10.0 | 0.00 | 0.49 | 0.11 | 73 | 1029.0 |
| 20260906075518 | 58 | 113 | 2.0 | 12.0 | 0.00 | 0.49 | 0.11 | 73 | 1029.0 |
| 20260906074518 | 58 | 135 | 2.0 | 7.0 | 0.00 | 0.49 | 0.11 | 73 | 1028.9 |
| 20260906073519 | 58 | 113 | 3.0 | 10.0 | 0.00 | 0.49 | 0.11 | 73 | 1029.0 |
| 20260906072518 | 57 | 113 | 4.0 | 12.0 | 0.00 | 0.49 | 0.11 | 74 | 1028.9 |
| 20260906071518 | 58 | 90 | 3.0 | 14.0 | 0.00 | 0.49 | 0.11 | 74 | 1028.9 |
| 20260906070518 | 58 | 90 | 2.0 | 12.0 | 0.00 | 0.49 | 0.11 | 71 | 1028.6 |
| 20260906065518 | 58 | 113 | 2.0 | 8.0 | 0.00 | 0.49 | 0.11 | 66 | 1028.4 |
| 20260906064518 | 59 | 90 | 1.0 | 11.0 | 0.00 | 0.49 | 0.11 | 69 | 1028.3 |
| 20260906063518 | 59 | 90 | 2.0 | 11.0 | 0.00 | 0.49 | 0.11 | 72 | 1028.2 |
| 20260906062519 | 59 | 135 | 2.0 | 11.0 | 0.00 | 0.49 | 0.11 | 70 | 1028.2 |
| 20260906061538 | 60 | 135 | 1.0 | 10.0 | 0.00 | 0.49 | 0.11 | 66 | 1028.1 |
| 20260906060518 | 60 | 135 | 1.0 | 5.0 | 0.00 | 0.49 | 0.11 | 66 | 1027.9 |
| 20260906055518 | 59 | 113 | 3.0 | 11.0 | 0.00 | 0.49 | 0.11 | 65 | 1027.8 |
| 20260906054518 | 59 | 90 | 4.0 | 16.0 | 0.00 | 0.49 | 0.11 | 68 | 1027.9 |
| 20260906053519 | 59 | 113 | 4.0 | 14.0 | 0.00 | 0.49 | 0.11 | 66 | 1027.9 |
| 20260906052518 | 59 | 135 | 1.0 | 8.0 | 0.00 | 0.49 | 0.11 | 68 | 1027.8 |
| 20260906051519 | 59 | 113 | 1.0 | 7.0 | 0.00 | 0.49 | 0.11 | 70 | 1027.9 |
| 20260906050519 | 60 | 113 | 1.0 | 5.0 | 0.00 | 0.49 | 0.11 | 69 | 1027.9 |
| 20260906045518 | 60 | 113 | 2.0 | 9.0 | 0.00 | 0.49 | 0.11 | 71 | 1027.9 |
| 20260906044518 | 59 | 113 | 2.0 | 12.0 | 0.00 | 0.49 | 0.11 | 73 | 1027.8 |
| 20260906043518 | 59 | 113 | 1.0 | 9.0 | 0.00 | 0.49 | 0.11 | 73 | 1027.9 |
| 20260906042518 | 58 | 113 | 2.0 | 10.0 | 0.00 | 0.49 | 0.11 | 72 | 1028.1 |
| 20260906041518 | 59 | 113 | 1.0 | 8.0 | 0.00 | 0.49 | 0.11 | 72 | 1028.1 |
| 20260906040538 | 59 | 135 | 2.0 | 10.0 | 0.00 | 0.49 | 0.11 | 72 | 1028.0 |
| 20260906035539 | 59 | 135 | 4.0 | 14.0 | 0.00 | 0.49 | 0.11 | 71 | 1028.0 |
| 20260906034518 | 60 | 135 | 3.0 | 12.0 | 0.00 | 0.49 | 0.11 | 71 | 1028.2 |
| 20260906033518 | 59 | 113 | 3.0 | 11.0 | 0.00 | 0.49 | 0.11 | 70 | 1028.0 |
| 20260906032518 | 60 | 113 | 3.0 | 14.0 | 0.00 | 0.49 | 0.11 | 70 | 1028.0 |
| 20260906031518 | 60 | 113 | 3.0 | 12.0 | 0.00 | 0.49 | 0.11 | 70 | 1028.0 |
| 20260906030518 | 60 | 113 | 1.0 | 6.0 | 0.00 | 0.49 | 0.11 | 71 | 1027.9 |
| 20260906025558 | 60 | 135 | 4.0 | 14.0 | 0.00 | 0.49 | 0.11 | 67 | 1027.9 |
| 20260906024517 | 59 | 113 | 6.0 | 17.0 | 0.00 | 0.49 | 0.11 | 69 | 1027.9 |
| 20260906023558 | 60 | 113 | 6.0 | 20.0 | 0.00 | 0.49 | 0.11 | 67 | 1027.8 |
| 20260906022518 | 60 | 113 | 1.0 | 6.0 | 0.00 | 0.49 | 0.11 | 71 | 1027.6 |
| 20260906021518 | 59 | 113 | 5.0 | 14.0 | 0.00 | 0.49 | 0.11 | 67 | 1027.6 |
| 20260906020518 | 59 | 135 | 2.0 | 8.0 | 0.00 | 0.49 | 0.11 | 69 | 1027.6 |
| 20260906015517 | 58 | 113 | 2.0 | 11.0 | 0.00 | 0.49 | 0.11 | 68 | 1027.5 |
| 20260906014517 | 58 | 135 | 1.0 | 7.0 | 0.00 | 0.49 | 0.11 | 71 | 1027.5 |
| 20260906013518 | 57 | 135 | 1.0 | 5.0 | 0.00 | 0.49 | 0.11 | 72 | 1027.4 |
| 20260906012518 | 57 | 135 | 2.0 | 9.0 | 0.00 | 0.49 | 0.11 | 73 | 1027.4 |
| 20260906011557 | 57 | 135 | 3.0 | 13.0 | 0.00 | 0.49 | 0.11 | 74 | 1027.1 |
| 20260906010538 | 57 | 135 | 1.0 | 11.0 | 0.00 | 0.49 | 0.11 | 74 | 1026.9 |
| 20260906005537 | 57 | 180 | 3.0 | 14.0 | 0.00 | 0.49 | 0.11 | 71 | 1026.8 |
| 20260906004518 | 57 | 135 | 1.0 | 6.0 | 0.00 | 0.49 | 0.11 | 73 | 1026.7 |
| 20260906003517 | 56 | 113 | 1.0 | 7.0 | 0.00 | 0.49 | 0.11 | 73 | 1026.5 |
| 20260906002518 | 56 | 135 | 2.0 | 10.0 | 0.00 | 0.49 | 0.11 | 73 | 1026.3 |
| 20260906001517 | 56 | 158 | 1.0 | 11.0 | 0.00 | 0.49 | 0.11 | 75 | 1026.2 |
| 20260906000517 | 56 | 135 | 2.0 | 9.0 | 0.00 | 0.49 | 0.11 | 76 | 1025.9 |
| 20260905235517 | 56 | 135 | 1.0 | 7.0 | 0.00 | 0.49 | 0.11 | 75 | 1025.9 |